Location: Sternwarte_Laufen
(47.9344°N, 12.9346°E)
Time: 11:07:55
(UTC+02:00)

ISS - Pass Details

Date: 21 May 2018
Orbit: 402 x 407 km, 51.6° (Epoch: 24 May)

Event Time Altitude Azimuth Distance (km) Brightness Sun altitude
Rises 00:43:36 0° 269° (W) 2,317 0.1 -21.8°
Reaches altitude 10° 00:45:44 10° 276° (W) 1,458 -0.9 -21.8°
Maximum altitude 00:48:53 45° 351° (N) 559 -2.7 -21.8°
Drops below altitude 10° 00:52:03 10° 66° (ENE) 1,459 -0.8 -21.9°
Sets 00:54:11 0° 73° (ENE) 2,319 0.2 -21.9°
